Flag for U.S.A. Weather past 2 weeks in Idaho Falls, Idaho, U.S.A.

Now
70 °F

Sunny.


Feels Like: 76 °F
Forecast: 46 / 71 °F
Wind: 13 mph from South

Location: Fanning Field

Current Time: Sep 2, 2014 at 9:16:18 PM

Latest Report: Sep 2, 2014 at 8:53 PM


Visibility: 10 mi

Pressure: 29.74 "Hg

Humidity: 27%

Dew point: 34 °F

Location of Idaho FallsLocation

Historic Weather in Idaho Falls — Graph

°F

Idaho Falls temperature yesterday

Maximum temperature yesterday: 74 °F (at 4:53 PM)
Minimum temperature yesterday: 45 °F (at 6:53 AM)
Average temperature yesterday: 60 °F

Past Weeks' High & Low Weather Summary

 TemperatureHumidityPressure
High85 °F (Aug 29, 2:53 PM)97% (Aug 20, 7:53 AM)30.21 "Hg (Aug 20, 7:53 AM)
Low42 °F (Aug 24, 6:53 AM)17% (Sep 2, 5:53 PM)29.71 "Hg (Aug 19, 5:53 PM)
Average61 °F64%29.96 "Hg
* Reported Aug 18 7:53 PM — Sep 2 7:53 PM, Idaho Falls, Weather by CustomWeather, © 2014

Note: Actual official high and low records may vary slightly from our data, if they occured in-between our weather recording intervals... More about our weather records

Advertising

Idaho Falls weather history for previous 24 hours

 ConditionsComfort  
Time TempWeatherWind HumidityBarometerVisibility
7:53 PM
Sep 2
74 °FSunny.10 mph20%29.75 "Hg10 mi
6:53 PM78 °FSunny.15 mph18%29.76 "Hg10 mi
5:53 PM79 °FSunny.18 mph17%29.78 "Hg10 mi
4:53 PM80 °FSunny.16 mph19%29.79 "Hg10 mi
3:53 PM79 °FSunny.16 mph22%29.81 "Hg10 mi
2:53 PM79 °FSunny.18 mph22%29.85 "Hg10 mi
1:53 PM76 °FSunny.18 mph25%29.88 "Hg10 mi
12:53 PM74 °FSunny.13 mph26%29.90 "Hg10 mi
11:53 AM71 °FSunny.12 mph31%29.93 "Hg10 mi
10:53 AM68 °FSunny.9 mph32%29.95 "Hg10 mi
9:53 AM63 °FSunny.9 mph43%29.96 "Hg10 mi
8:53 AM57 °FSunny.7 mph53%29.98 "Hg10 mi
7:53 AM51 °FClear.7 mph63%29.98 "Hg10 mi
6:53 AM47 °FClear.6 mph69%29.97 "Hg10 mi
5:53 AM47 °FClear.No wind69%29.96 "Hg10 mi
4:53 AM48 °FClear.8 mph68%29.97 "Hg10 mi
3:53 AM50 °FClear.7 mph63%29.97 "Hg10 mi
2:53 AM54 °FClear.5 mph53%29.96 "Hg10 mi
1:53 AM53 °FClear.8 mph56%29.97 "Hg10 mi
12:53 AM60 °FClear.9 mph42%29.96 "Hg10 mi
11:53 PM
Sep 1
53 °FClear.8 mph61%29.99 "Hg10 mi
10:53 PM58 °FClear.3 mph50%29.99 "Hg10 mi
9:53 PM62 °FSunny.9 mph41%29.99 "Hg10 mi
Weather by CustomWeather, © 2014

See weather overviewHow to use our weather pages